Location: Langdon
(51.1667°N, 1.3167°E)
Time: 06:57:05
(UTC+00:00)

Daily predictions for brighter satellites

Satellite Brightness Start Highest point End
(mag) Time Altitude Azimuth Time Altitude Azimuth Time Altitude Azimuth
SPOT 3 Rocket 3.8 20:47:53 10° SSE 20:52:56 61° ENE 20:58:03 10° N
Cosmos 1741 Rocket 4.4 20:48:10 10° S 20:53:09 45° ESE 20:58:12 10° NE
Meteor 1-13 Rocket 4.4 20:50:02 10° SSW 20:55:49 87° WNW 21:01:30 10° NNE
IRS-1C Rocket 4.4 20:52:17 10° S 20:57:31 69° WSW 21:02:47 10° NNW
USA 234 3.6 20:51:35 10° ENE 20:57:48 44° SE 21:03:58 10° SSW
Timation 1 Rocket 4.4 20:54:09 10° SSW 21:00:02 65° ESE 21:05:57 10° NE
Cosmos 1356 Rocket 3.8 20:57:44 10° SSE 21:01:45 46° E 21:05:47 10° NNE
Landsat 4 3.6 20:58:43 10° SSE 21:02:07 66° ENE 21:05:32 10° N
Cosmos 1733 Rocket 3.3 20:59:00 10° N 21:03:23 61° ENE 21:07:46 10° SSE
Cosmos 1953 3.8 21:00:51 10° NNE 21:03:58 23° ENE 21:07:04 10° ESE
Okean 1-7 4.5 21:02:23 10° SE 21:05:43 22° E 21:09:03 10° NE
BlueWalker 3 3.8 21:05:05 10° SSE 21:06:20 11° SE 21:07:35 10° ESE
Terra 1.9 21:03:33 10° SSE 21:08:16 80° WSW 21:13:01 10° NNW
Cosmos 1315 Rocket 4.3 21:06:33 10° SE 21:09:37 22° E 21:12:43 10° NE
Cosmos 2360 Rocket 2.3 21:04:21 10° NNW 21:10:03 83° WSW 21:15:43 10° SSE
ARIANE 5 R/B 4.4 21:08:54 10° ESE 21:12:00 20° ENE 21:15:08 10° NNE
ERS-1 Rocket 3.4 21:10:21 10° S 21:15:19 61° WSW 21:20:19 10° NNW
Cosmos 841 Rocket 4.4 21:11:49 10° NW 21:16:49 45° WSW 21:21:47 10° S
Cosmos 1455 3.4 21:14:54 10° NNE 21:17:54 26° ENE 21:20:52 10° SE
SL-27 R/B 1.9 21:17:25 10° S 21:20:08 58° ESE 21:22:54 10° NNE
SL-16 R/B 3.4 21:18:01 10° NW 21:23:09 36° WSW 21:28:17 10° S
OPS 8737 4.0 21:21:13 10° NW 21:24:09 87° SW 21:26:55 12° SE
BREEZE-M DEB (TANK) 3.8 21:21:44 10° SW 21:25:48 64° SSE 21:41:15 10° ENE
Cosmos 2082 Rocket 4.5 21:24:32 10° WSW 21:29:30 30° NW 21:34:28 10° NNE
Cosmos 2333 Rocket 2.5 21:23:52 10° NW 21:29:35 66° WSW 21:35:13 10° SSE
Cosmos 807 4.1 21:26:32 10° S 21:29:42 67° E 21:32:36 10° NNE
Aureole 3 3.8 21:26:02 10° S 21:30:04 58° E 21:35:08 10° NNE
Cosmos 2266 Rocket 4.5 21:23:58 10° SSW 21:30:16 66° WNW 21:36:42 10° N
Meteor 1-23 Rocket 4.5 21:25:46 10° SSW 21:31:26 76° WNW 21:37:14 10° N
Spot 2 Rocket 4.0 21:26:31 10° S 21:31:30 59° WSW 21:36:33 10° NNW
Cosmos 1346 Rocket 3.1 21:28:09 10° NNW 21:32:00 61° W 21:35:47 10° S
SL-14 R/B 3.3 21:28:14 10° SSW 21:32:01 76° WNW 21:35:51 10° N
Cosmos 2228 Rocket 3.3 21:32:30 10° SSW 21:37:04 77° WNW 21:41:40 10° N
Cosmos 1655 Rocket 4.3 21:34:40 10° SSW 21:41:04 77° W 21:47:30 10° N
COSMOS 2455 4.3 21:38:31 12° SE 21:41:56 19° ESE 21:45:57 10° ENE
ATLAS 2AS CENTAUR R/B 3.0 21:35:22 10° NW 21:42:02 55° WSW 21:47:58 12° SSE
Landsat 5 3.5 21:38:58 10° NNE 21:42:58 62° ESE 21:47:05 10° S
Cosmos 1833 4.2 21:38:54 10° SSW 21:44:30 72° ESE 21:50:07 10° NNE
Cosmos 2237 Rocket 3.7 21:41:01 10° NNW 21:45:59 30° NE 21:50:55 10° ESE
Meteor 1-4 Rocket 2.0 21:44:36 12° S 21:47:16 68° E 21:50:17 10° NNE
Cosmos 1242 Rocket 3.3 21:47:48 17° SE 21:49:05 23° E 21:51:22 10° NE
USA 281 3.6 21:43:40 11° SE 21:49:58 59° NE 21:56:25 10° NNW
Cosmos 2322 3.9 21:45:43 10° NNW 21:51:25 71° ENE 21:56:21 14° SE
Meteor 1-16 Rocket 4.4 21:45:45 10° NNW 21:51:43 80° W 21:57:16 12° S
Okean 3 3.4 21:48:45 10° S 21:52:54 85° WNW 21:57:06 10° N
Kosmos-1783 4.3 21:50:21 10° NW 21:53:50 78° SW 22:00:04 13° SE
Cosmos 839 Rocket 4.3 21:48:24 10° NW 21:55:20 65° WSW 22:00:36 14° SSE
Spot 1 4.2 21:51:06 10° NNE 21:55:40 85° ESE 22:00:27 10° SSW
Ariane Rocket 4.1 21:51:45 10° SSW 21:56:30 39° W 22:01:18 10° NNW
Cosmos 1300 4.4 21:54:35 10° NNW 21:57:36 26° W 22:00:35 10° SSW
ALOS 2 4.4 21:58:17 10° ESE 22:01:37 21° ENE 22:04:57 10° N
H-2A R/B 3.8 21:58:24 12° ESE 22:01:46 30° ENE 22:05:30 10° N
MetOp-A 4.3 21:58:04 13° S 22:02:49 68° WSW 22:08:04 10° NNW
Cosmos 1703 Rocket 3.9 21:59:28 15° SSE 22:02:59 52° E 22:07:19 10° NNE
Cosmos 1862 Rocket 4.2 21:59:29 10° SSW 22:03:49 57° WNW 22:08:13 10° N
Cosmos 2322 Rocket 3.7 21:59:52 10° NW 22:04:37 28° WSW 22:09:23 10° SSW
SL-4 R/B 1.9 22:03:59 10° W 22:07:53 78° SSW 22:12:04 10° ESE
Cosmos 2297 Rocket 3.7 22:11:53 14° SE 22:14:38 20° E 22:18:39 10° NE
SJ 16-02 1.7 22:12:17 10° SSW 22:16:34 64° WNW 22:20:54 10° NNE
SeaSat 1 4.4 22:15:29 10° SSW 22:19:00 20° WSW 22:22:34 10° WNW
SL-08 R/B 4.4 22:13:35 12° S 22:19:19 84° E 22:25:27 10° N
Cosmos 158 Rocket 4.0 22:17:10 10° NNW 22:22:32 80° ENE 22:26:23 18° SSE
Cosmos 968 Rocket 4.3 22:17:49 10° SW 22:22:51 52° WNW 22:27:58 10° NNE
BREEZE-M DEB (TANK) 3.2 22:21:00 10° WSW 22:23:49 72° S 22:31:18 10° E
Cosmos 1932 4.5 22:19:41 10° SW 22:26:01 90° WNW 22:32:21 10° NE
Cosmos 2242 Rocket 4.5 22:23:28 19° SSE 22:26:12 36° E 22:30:24 10° NNE
Cosmos 1570 Rocket 4.1 22:21:03 10° NNW 22:26:25 73° WSW 22:30:19 19° SSE
BREEZE-M DEB (TANK) 4.0 22:25:24 10° WSW 22:27:14 18° SSW 22:27:27 18° SSW
MINOTAUR 4 R/B 4.2 22:25:08 10° NNE 22:27:53 38° E 22:28:58 27° SSE
Cosmos 2219 Rocket 3.0 22:22:45 10° NW 22:28:05 43° WSW 22:32:21 15° S
Cosmos 1408 3.0 22:27:18 24° SE 22:28:24 32° E 22:31:08 10° NNE
ATLAS CENTAUR R/B 2.8 22:25:26 10° WSW 22:28:41 34° NW 22:32:05 10° NNE
EXPRESS MD2 1.7 22:27:53 10° W 22:30:09 60° S 22:30:57 31° ESE
CZ-4C R/B 2.8 22:28:53 20° SSE 22:31:04 29° ESE 22:35:43 10° ENE
COSMOS 2428 2.8 22:28:44 10° NNW 22:34:26 74° WSW 22:38:32 19° SSE
CZ-2C R/B 3.6 22:33:44 10° NNE 22:38:11 81° ESE 22:41:28 18° S
BREEZE-M DEB (TANK) 3.7 22:23:03 10° W 22:38:32 79° S 22:42:32 10° E
CENTAUR R/B 4.1 22:37:02 12° SE 22:39:10 14° ESE 22:42:18 10° ENE
Cosmos 1953 3.5 22:36:23 10° NNW 22:39:52 34° W 22:42:38 14° SSW
USA 234 3.4 22:34:36 10° ENE 22:41:10 82° NNW 22:47:43 10° WSW
Okean 2 4.3 22:38:16 10° SSW 22:42:06 43° WNW 22:45:58 10° N
Okean 1-7 4.0 22:38:35 10° SSW 22:42:44 44° WNW 22:46:54 10° N
BlueWalker 3 2.0 22:40:10 10° SW 22:43:47 48° SSE 22:47:24 10° ENE
Cosmos 405 Rocket 3.9 22:40:24 10° N 22:43:49 32° ENE 22:46:03 18° ESE
Cosmos 1315 Rocket 4.0 22:41:47 10° SW 22:45:32 39° WNW 22:49:20 10° N
Terra 4.4 22:45:01 10° WSW 22:46:39 12° W 22:48:19 10° WNW
ARIANE 5 R/B 2.8 22:45:12 21° S 22:48:00 60° WSW 22:52:19 10° NNW
Cosmos 773 Rocket 4.1 22:44:01 10° NNW 22:49:11 74° ENE 22:52:47 20° SSE
Cosmos 1455 3.7 22:49:20 10° NW 22:52:16 25° W 22:54:36 13° SW
Cosmos 2360 Rocket 4.3 22:49:55 10° WNW 22:53:09 16° W 22:56:23 10° SW
Cosmos 371 Rocket 3.5 22:53:41 22° S 22:56:32 52° ESE 23:01:14 10° NNE
PSLV R/B 3.8 22:54:42 10° NNE 22:58:43 85° WNW 23:01:18 21° SSW
Cosmos 1782 Rocket 4.0 22:55:36 10° NNW 22:59:48 51° W 23:02:30 21° SSW
GP-B 3.8 22:56:00 10° N 23:00:16 48° W 23:03:32 16° SSW
Cosmos 2208 Rocket 4.5 22:57:20 10° NNW 23:02:20 49° WSW 23:05:33 21° S
Cosmos 1745 Rocket 4.2 22:59:46 15° SSW 23:05:04 76° W 23:11:28 10° N
Cosmos 1892 4.2 23:05:53 18° ESE 23:07:09 22° E 23:09:54 10° NE
H-2A R/B 3.7 23:05:55 10° NE 23:09:11 21° E 23:10:59 16° SE
Cosmos 1503 Rocket 4.3 23:07:09 22° S 23:10:21 53° ESE 23:15:30 10° NNE
Cosmos 2333 Rocket 4.5 23:10:37 10° WNW 23:12:46 12° W 23:14:54 10° WSW
NOSS 8 (H) 4.2 23:11:36 21° SSW 23:13:46 67° SE 23:16:47 10° NE
Cosmos 1703 3.0 23:12:38 29° S 23:14:24 77° E 23:18:05 10° NNE
Cosmos 1300 Rocket 4.3 23:11:09 10° NNW 23:15:14 43° W 23:17:47 20° SSW
Cosmos 1242 Rocket 4.5 23:19:14 10° WSW 23:21:06 16° WNW 23:22:58 10° NNW
Cosmos 2181 Rocket 4.0 23:16:28 10° N 23:22:41 76° ENE 23:26:52 22° SSE
SL-16 R/B 3.1 23:19:00 10° NNW 23:24:29 45° NE 23:29:56 10° ESE
NOSS 8 (A) 4.4 23:21:38 10° NW 23:24:33 66° NE 23:26:35 21° ESE
COSMOS 2455 2.8 23:21:34 13° SSW 23:27:02 85° SE 23:33:07 10° NE
Cosmos 1825 3.0 23:26:52 25° SE 23:28:03 32° E 23:31:08 10° NNE
Cosmos 2151 Rocket 3.6 23:24:11 10° N 23:28:35 72° ENE 23:31:01 26° SSE
Spot 4 4.3 23:26:57 23° SSW 23:29:44 51° W 23:34:27 10° NNW
BREEZE-M DEB (TANK) 3.4 23:29:09 29° SSW 23:30:14 44° SSE 23:35:18 10° E
Cosmos 2237 Rocket 2.3 23:24:53 10° NW 23:30:31 67° WSW 23:34:01 23° SSE
Cosmos 2098 Rocket 4.1 23:27:23 10° NNW 23:34:01 77° W 23:38:17 22° S
Cosmos 2074 Rocket 4.4 23:30:40 21° SSE 23:34:40 50° E 23:40:39 10° NNE
USA 281 4.1 23:30:32 18° SSW 23:34:45 37° WSW 23:40:47 10° NW
Okean 2 Rocket 3.1 23:30:23 10° N 23:34:53 76° ENE 23:37:23 26° SSE
H-2A R/B 3.6 23:34:22 21° SSW 23:36:38 35° W 23:40:33 10° NNW
Cosmos 1486 Rocket 4.2 23:32:32 15° SW 23:36:48 68° WNW 23:42:01 10° NNE
Cosmos 1674 Rocket 3.8 23:35:17 27° SSE 23:37:29 56° E 23:41:44 10° NNE
Cosmos 1378 Rocket 3.6 23:35:17 27° S 23:37:32 66° E 23:41:55 10° NNE
ALOS 2 2.9 23:35:18 26° S 23:37:37 55° W 23:41:57 10° NNW
Cosmos 2227 Rocket 2.7 23:35:09 23° SSE 23:38:15 44° ESE 23:43:36 10° NE
Cosmos 1025 Rocket 4.5 23:37:38 18° SE 23:39:50 27° E 23:43:28 10° NNE
Cosmos 304 Rocket 3.8 23:38:29 20° SSW 23:41:45 79° WNW 23:46:33 10° NNE
Cosmos 1980 4.1 23:38:23 10° NW 23:43:52 51° WSW 23:47:07 24° S
SL-4 R/B 2.9 23:42:49 10° W 23:46:22 30° SW 23:47:04 28° SSW
Meteor 1-24 Rocket 3.8 23:42:32 20° SSW 23:46:35 74° WNW 23:52:12 10° N
SOZ 4.4 23:45:03 10° WNW 23:47:34 88° NNE 23:50:38 10° ESE
Cosmos 332 Rocket 4.0 23:48:04 26° S 23:50:44 61° ESE 23:55:34 10° NNE
Cosmos 1354 Rocket 4.0 23:49:34 22° SSW 23:53:02 85° ESE 23:58:23 10° NNE
SJ 16-02 4.2 23:54:09 10° WNW 23:55:50 12° NW 23:57:33 10° NNW
